This demonstration page uses our WeatherBlox Daily Observations layout. Learn more.

Left ArrowRight Arrow

39.29038, -76.61219

Hourly Observations for April 13, 2022

Temp ( °F °C ) Dew Point ( °F °C ) Humidity (%) Winds ( mph kmh ) Pressure ( in mb ) Visibility ( mi km ) Precip ( " mm )
12:54 am 00:54 Mostly Clear 61 16.1 51 10.6 70 70 ENE 6 9 30.03 1017 10 16 0.00 0.00
1:54 am 01:54 Mostly Clear 60 15.6 51 10.6 72 72 Calm 30.03 1017 10 16 0.00 0.00
2:54 am 02:54 Mostly Clear 58 14.4 51 10.6 78 78 Calm 30.01 1016 10 16 0.00 0.00
3:54 am 03:54 Partly Cloudy 54 12.2 50 10 87 87 Calm 30.01 1016 10 16 0.00 0.00
4:54 am 04:54 Partly Cloudy 55 12.8 50 10 83 83 Calm 30.00 1016 10 16 0.00 0.00
5:54 am 05:54 Partly Cloudy 53 11.7 49 9.4 86 86 Calm 30.01 1016 10 16 0.00 0.00
6:32 am 06:32 Mostly Cloudy 55 12.8 50 10 83 83 ENE 6 9 30.02 1017 10 16 0.00 0.00
6:54 am 06:54 Mostly Cloudy 57 13.9 51 10.6 81 81 NE 5 7 30.03 1017 10 16 0.00 0.00
7:54 am 07:54 Mostly Cloudy 59 15 53 11.7 81 81 ESE 5 7 30.04 1017 10 16 0.00 0.00
8:54 am 08:54 Sunny 64 17.8 54 12.2 70 70 VRB 3 6 30.04 1017 10 16 0.00 0.00
9:54 am 09:54 Mostly Cloudy 66 18.9 55 12.8 68 68 VRB 5 7 30.03 1017 10 16 0.00 0.00
10:54 am 10:54 Mostly Cloudy 72 22.2 55 12.8 55 55 W 3 6 30.01 1016 10 16 0.00 0.00
11:54 am 11:54 Mostly Cloudy 77 25 55 12.8 47 47 S 6 9 29.99 1016 10 16 0.00 0.00
12:54 pm 12:54 Cloudy 82 27.8 56 13.3 41 41 SSW 8 13 29.95 1014 10 16 0.00 0.00
1:54 pm 13:54 Cloudy 80 26.7 58 14.4 47 47 ENE 10 17 29.92 1013 10 16 0.00 0.00
2:54 pm 14:54 Cloudy 83 28.3 58 14.4 43 43 ESE 14 22 29.88 1012 10 16 0.00 0.00
3:54 pm 15:54 Cloudy 84 28.9 57 13.9 40 40 SE 8 13 29.84 1011 10 16 0.00 0.00
4:54 pm 16:54 Cloudy 86 30 54 12.2 33 33 SSW 13 20 29.81 1010 10 16 0.00 0.00
5:54 pm 17:54 Mostly Cloudy 86 30 50 10 29 29 SW 12 19 29.79 1009 10 16 0.00 0.00
6:54 pm 18:54 Mostly Cloudy 86 30 50 10 29 29 SSW 8 13 29.78 1009 10 16 0.00 0.00
7:54 pm 19:54 Mostly Cloudy 83 28.3 49 9.4 31 31 SSW 5 7 29.78 1009 10 16 0.00 0.00
8:54 pm 20:54 Partly Cloudy 75 23.9 54 12.2 48 48 SE 6 9 29.79 1009 10 16 0.00 0.00
9:54 pm 21:54 Partly Cloudy 80 26.7 51 10.6 37 37 SSW 8 13 29.79 1009 10 16 0.00 0.00
10:54 pm 22:54 Mostly Cloudy 79 26.1 51 10.6 38 38 SSW 12 19 29.78 1008 10 16 0.00 0.00
11:54 pm 23:54 Mostly Cloudy 78 25.6 52 11.1 40 40 SSW 7 11 29.76 1008 10 16 0.00 0.00

Powered by AerisWeather